Regional Weather Roundup
Issued by NWS

Home | Current Version | Previous Version | Graphics & Text | Print | Product List | Glossary On
Versions: 1 2 3 4 5 6 7 8 9 10 11 12 13 14 15 16 17 18 19 20 21 22 23 24 25 26 27 28 29 30 31 32 33 34 35 36 37 38 39 40 41 42 43 44 45 46 47 48 49 50
000
ASUS45 KPSR 301200
RWRAZ

PRELIMINARY ARIZONA REGIONAL HOURLY WEATHER ROUNDUP
NATIONAL WEATHER SERVICE PHOENIX AZ
500 AM MST TUE SEP 30 2014

NOTE: FAIR INDICATES FEW OR NO CLOUDS BELOW 12,000 FEET WITH NO
SIGNIFICANT WEATHER AND/OR OBSTRUCTIONS TO VISIBILITY.

AZZ001>003-036-301300-
NORTHWEST ARIZONA

CITY           SKY/WX    TMP DP  RH WIND       PRES   REMARKS
KINGMAN        NOT AVBL
$$

AZZ004>008-015-016-018-301300-
NORTH CENTRAL ARIZONA

CITY           SKY/WX    TMP DP  RH WIND       PRES   REMARKS
GRAND CANYON   CLEAR     33  32  96 CALM      30.11S
6HR MIN TEMP:  33; 6HR MAX TEMP:  39;

PRESCOTT       CLEAR     47  36  65 S6        30.05R
6HR MIN TEMP:  45; 6HR MAX TEMP:  52;

FLAGSTAFF      PTCLDY    33  30  88 CALM      30.12F
6HR MIN TEMP:  33; 6HR MAX TEMP:  41;

PAYSON         CLEAR     50  37  62 CALM      30.05S
$$

AZZ009>014-017-301300-
NORTHEAST ARIZONA

CITY           SKY/WX    TMP DP  RH WIND       PRES   REMARKS
WINSLOW        NOT AVBL
SAINT JOHNS    CLEAR     45  36  70 S5        30.06S
6HR MIN TEMP:  45; 6HR MAX TEMP:  53;

$$

AZZ023-301300-
GREATER PHOENIX AREA

CITY           SKY/WX    TMP DP  RH WIND       PRES   REMARKS
PHOENIX        CLEAR     68  53  58 S3        29.84R
6HR MIN TEMP:  67; 6HR MAX TEMP:  79;

DEER VALLEY    CLEAR     61  52  72 CALM      29.85R
6HR MIN TEMP:  61; 6HR MAX TEMP:  71;

SCOTTSDALE     CLEAR     64  53  67 CALM      29.86S
6HR MIN TEMP:  63; 6HR MAX TEMP:  74;

MESA-GATEWAY   CLEAR     61  54  77 E5        29.88R
$$

AZZ027-028-301300-
SOUTHWEST MARICOPA COUNTY AND PINAL COUNTY

CITY           SKY/WX    TMP DP  RH WIND       PRES   REMARKS
CASA GRANDE    CLEAR     59  48  67 CALM      29.87R
6HR MIN TEMP:  59; 6HR MAX TEMP:  70;

$$

AZZ503-504-507>509-301300-
SOUTHEAST ARIZONA

CITY           SKY/WX    TMP DP  RH WIND       PRES   REMARKS
TUCSON         CLEAR     62  47  57 S8        29.94S
6HR MIN TEMP:  61; 6HR MAX TEMP:  71;

DAVIS-MONTHAN  CLEAR     58  44  58 SE7       29.92F
6HR MIN TEMP:  58; 6HR MAX TEMP:  66;

NOGALES        CLEAR     52  48  86 E3        29.99S
6HR MIN TEMP:  52; 6HR MAX TEMP:  61;

SIERRA VISTA   PTCLDY    57  54  88 S3        30.03R
SAFFORD        CLEAR     55  37  50 CALM      29.93S
6HR MIN TEMP:  55; 6HR MAX TEMP:  66;

$$

AZZ020-021-025-026-031-301300-
SOUTHWEST ARIZONA

CITY           SKY/WX    TMP DP  RH WIND       PRES   REMARKS
YUMA           CLEAR     73  43  33 NE3       29.80S
6HR MIN TEMP:  71; 6HR MAX TEMP:  78;

$$

CAZ031-033-041-043-047-048-061-301300-
SOUTHERN CALIFORNIA

CITY           SKY/WX    TMP DP  RH WIND       PRES   REMARKS
DOWNTOWN L.A.  CLEAR     64  58  80 CALM      29.84F
6HR MIN TEMP:  64; 6HR MAX TEMP:  69;

L.A. AIRPORT   CLEAR     62  58  86 E5        29.85S
6HR MIN TEMP:  62; 6HR MAX TEMP:  68;

SAN DIEGO      CLEAR     65  58  78 CALM      29.86S
6HR MIN TEMP:  65; 6HR MAX TEMP:  69;

BURBANK        CLEAR     61  47  59 CALM      29.85F
6HR MIN TEMP:  61; 6HR MAX TEMP:  70;

ONTARIO        CLEAR     63  55  75 CALM      29.87S
6HR MIN TEMP:  62; 6HR MAX TEMP:  68;

RIVERSIDE      CLEAR     61  53  75 CALM      29.87F
6HR MIN TEMP:  61; 6HR MAX TEMP:  68;

PALM SPRINGS   CLEAR     70  46  42 CALM      29.85S
6HR MIN TEMP:  70; 6HR MAX TEMP:  81;

EL CENTRO NAS  CLEAR     67  38  34 W7        29.79F
6HR MIN TEMP:  66; 6HR MAX TEMP:  75;

IMPERIAL       CLEAR     65  43  44 W7        29.79S
6HR MIN TEMP:  65; 6HR MAX TEMP:  75;

BLYTHE         CLEAR     65  44  46 N5        29.82R
6HR MIN TEMP:  65; 6HR MAX TEMP:  75;

$$

NVZ020-UTZ003-301300-
SOUTHERN NEVADA-UTAH

CITY           SKY/WX    TMP DP  RH WIND       PRES   REMARKS
LAS VEGAS      NOT AVBL
SALT LAKE CITY LGT RAIN  53  49  86 E7        29.97S
6HR MIN TEMP:  51; 6HR MAX TEMP:  54; 6HR PCP: TRACE;

$$

NMZ009-TXZ055-301300-
NEW MEXICO-WEST TEXAS

CITY           SKY/WX    TMP DP  RH WIND       PRES   REMARKS
ALBUQUERQUE    CLEAR     52  36  54 NE5       30.05R
6HR MIN TEMP:  47; 6HR MAX TEMP:  61;

EL PASO        CLEAR     70  52  52 N3        29.95R
6HR MIN TEMP:  70; 6HR MAX TEMP:  76;

$$


........................KEY........................
SKY/WX - SKY CONDITION/WEATHER
TMP    - TEMPERATURE IN FAHRENHEIT
DP     - DEW POINT IN FAHRENHEIT
RH     - RELATIVE HUMIDITY IN PERCENT
WIND   - DIRECTION AND SPEED IN MILES PER HOUR (MPH)
VRB    - VARIABLE WIND DIRECTION
PRES   - MEAN SEA LEVEL PRESSURE IN INCHES OF MERCURY
         F - FALLING PRESSURE   R - RISING PRESSURE
         S - STEADY PRESSURE
VSB    - VISIBILITY IN MILES
HX     - HEAT INDEX IN FAHRENHEIT
WCI    - WIND CHILL INDEX IN FAHRENHEIT
TC     - TEMPERATURE IN CELSIUS WHICH IS ALSO KNOWN AS
         TEMPERATURE IN CENTIGRADE
AFB    - AIR FORCE BASE
         LUKE AFB IS LUKE AIR FORCE BASE
         DAVIS-MONTHAN IS DAVIS-MONTHAN AIR FORCE BASE
NAS    - NAVAL AIR STATION
         EL CENTRO NAS IS EL CENTRO NAVAL AIR STATION
N/A    - NOT AVAILABLE



USA.gov is the U.S. government's official web portal to all federal, state and local government web resources and services.